This tool has been used to add a total of 19,772 depicts statements.

173 users have tried this tool.

7,230 artworks have been cataloged.

username artwork depicts when
Waqupi View of Noordwijk (Q29855984) [wikidata] dog (Q144) 2021 Apr 13 19:09
Waqupi View of Noordwijk (Q29855984) [wikidata] man (Q8441) 2021 Apr 13 19:09
Waqupi View of Noordwijk (Q29855984) [wikidata] field (Q188869) 2021 Apr 13 19:09
Waqupi View of Noordwijk (Q29855984) [wikidata] grass (Q643352) 2021 Apr 13 19:09
Waqupi View of Noordwijk (Q29855984) [wikidata] cattle (Q830) 2021 Apr 13 19:09
Waqupi View of Noordwijk (Q29855984) [wikidata] hill (Q54050) 2021 Apr 13 19:09
Waqupi View of Noordwijk (Q29855984) [wikidata] fence (Q148571) 2021 Apr 13 19:09
Waqupi View of Noordwijk (Q29855984) [wikidata] meadow (Q7777019) 2021 Apr 13 19:09
Waqupi View of Noordwijk (Q29855984) [wikidata] forest (Q4421) 2021 Apr 13 19:09
Waqupi View of Noordwijk (Q29855984) [wikidata] plain (Q160091) 2021 Apr 13 19:09
Waqupi View of Noordwijk (Q29855984) [wikidata] windmill (Q38720) 2021 Apr 13 19:09
Waqupi View of Noordwijk (Q29855984) [wikidata] cloud (Q8074) 2021 Apr 13 19:09
Waqupi View of Noordwijk (Q29855984) [wikidata] sky (Q527) 2021 Apr 13 19:09
Waqupi View of Noordwijk (Q29855984) [wikidata] landscape (Q107425) 2021 Apr 13 19:09
Waqupi Portrait of a Gentleman (Q20505935) [wikidata] beard (Q42804) 2021 Apr 13 19:04
Waqupi Guillaume Anne (1750-1832), baron de Constant Rebecque (Q28100491) [wikidata] portrait (Q134307) 2021 Apr 13 19:04
Waqupi Guillaume Anne (1750-1832), baron de Constant Rebecque (Q28100491) [wikidata] shirt (Q76768) 2021 Apr 13 19:04
Waqupi Guillaume Anne (1750-1832), baron de Constant Rebecque (Q28100491) [wikidata] button (Q160464) 2021 Apr 13 19:04
Waqupi Guillaume Anne (1750-1832), baron de Constant Rebecque (Q28100491) [wikidata] white hair (Q6933946) 2021 Apr 13 19:04
Waqupi Guillaume Anne (1750-1832), baron de Constant Rebecque (Q28100491) [wikidata] military uniform (Q1196123) 2021 Apr 13 19:04
Waqupi Guillaume Anne (1750-1832), baron de Constant Rebecque (Q28100491) [wikidata] uniform (Q7434) 2021 Apr 13 19:04
Waqupi Guillaume Anne (1750-1832), baron de Constant Rebecque (Q28100491) [wikidata] man (Q8441) 2021 Apr 13 19:04
Fuzheado Marble seated harp player (Q29383895) [wikidata] chair (Q15026) 2021 Apr 13 19:03
Fuzheado Marble seated harp player (Q29383895) [wikidata] harpist (Q3127709) 2021 Apr 13 19:03
Fuzheado Marble seated harp player (Q29383895) [wikidata] harp (Q47369) 2021 Apr 13 19:03
Fuzheado Comtesse de la Châtre (Marie Charlotte Louise Perrette Aglaé Bontemps, 1762–1848) (Q19912372) [wikidata] couch (Q131514) 2021 Apr 13 18:57
Fuzheado Comtesse de la Châtre (Marie Charlotte Louise Perrette Aglaé Bontemps, 1762–1848) (Q19912372) [wikidata] hat (Q80151) 2021 Apr 13 18:57
Fuzheado Comtesse de la Châtre (Marie Charlotte Louise Perrette Aglaé Bontemps, 1762–1848) (Q19912372) [wikidata] muslin (Q725457) 2021 Apr 13 18:57
Fuzheado Comtesse de la Châtre (Marie Charlotte Louise Perrette Aglaé Bontemps, 1762–1848) (Q19912372) [wikidata] ribbon (Q857421) 2021 Apr 13 18:57
Fuzheado Comtesse de la Châtre (Marie Charlotte Louise Perrette Aglaé Bontemps, 1762–1848) (Q19912372) [wikidata] book (Q571) 2021 Apr 13 18:57
Waqupi Christina of Sweden, 1626-1689, Queen 1632-1654 [obverse] (Q63861816) [wikidata] Christina of Sweden (Q52937) 2021 Apr 13 18:48
Waqupi 10011 (Q56732399) [wikidata] bow tie (Q14125) 2021 Apr 13 18:47
Waqupi 10011 (Q56732399) [wikidata] man (Q8441) 2021 Apr 13 18:47
Waqupi Mariánský sloup (Q38037526) [wikidata] Francis Xavier (Q163900) 2021 Apr 13 18:46
Waqupi Mariánský sloup (Q38037526) [wikidata] Saint Sebastian (Q183332) 2021 Apr 13 18:46
Waqupi Mariánský sloup (Q38037526) [wikidata] Ludmila of Bohemia (Q118087) 2021 Apr 13 18:46
Waqupi Mariánský sloup (Q38037526) [wikidata] Saint Rosalia (Q254402) 2021 Apr 13 18:46
Waqupi Mariánský sloup (Q38037526) [wikidata] Joseph (Q128267) 2021 Apr 13 18:46
Waqupi Mariánský sloup (Q38037526) [wikidata] Saint Roch (Q152457) 2021 Apr 13 18:46
Waqupi Mariánský sloup (Q38037526) [wikidata] Jesus Christ (Q302) 2021 Apr 13 18:46
Waqupi Mariánský sloup (Q38037526) [wikidata] Saint Florian (Q298845) 2021 Apr 13 18:46
Waqupi Mariánský sloup (Q38037526) [wikidata] Saint Wenceslaus I, Duke of Bohemia (Q196527) 2021 Apr 13 18:46
Waqupi Mariánský sloup (Q38037526) [wikidata] Lawrence of Rome (Q17590) 2021 Apr 13 18:46
Waqupi Mariánský sloup (Q38037526) [wikidata] John of Nepomuk (Q221522) 2021 Apr 13 18:46
Waqupi Mariánský sloup (Q38037526) [wikidata] saint (Q43115) 2021 Apr 13 18:45
Waqupi Mariánský sloup (Q38037526) [wikidata] column (Q4817) 2021 Apr 13 18:45
Waqupi Mariánský sloup (Q38037526) [wikidata] statue (Q179700) 2021 Apr 13 18:45
Waqupi Mariánský sloup (Q38037526) [wikidata] halo (Q3341893) 2021 Apr 13 18:45
Waqupi Mariánský sloup (Q38037526) [wikidata] Virgin Mary (Q345) 2021 Apr 13 18:45
Waqupi Reliquary of Saint Gummarus of Lier (r1) (Q56487701) [wikidata] seashell (Q213096) 2021 Apr 13 18:40
Waqupi Reliquary of Saint Gummarus of Lier (r1) (Q56487701) [wikidata] tree (Q10884) 2021 Apr 13 18:40
Waqupi Reliquary of Saint Gummarus of Lier (r1) (Q56487701) [wikidata] leaf (Q33971) 2021 Apr 13 18:40
Waqupi Reliquary of Saint Gummarus of Lier (r1) (Q56487701) [wikidata] monarch (Q116) 2021 Apr 13 18:40
Waqupi Reliquary of Saint Gummarus of Lier (r1) (Q56487701) [wikidata] crown (Q170984) 2021 Apr 13 18:40
Waqupi Reliquary of Saint Gummarus of Lier (r1) (Q56487701) [wikidata] coat of arms (Q14659) 2021 Apr 13 18:40
Waqupi Reliquary of Saint Gummarus of Lier (r1) (Q56487701) [wikidata] lion (Q140) 2021 Apr 13 18:40
Waqupi Reliquary of Saint Gummarus of Lier (r1) (Q56487701) [wikidata] Cupid (Q5011) 2021 Apr 13 18:40
Waqupi Reliquary of Saint Gummarus of Lier (r1) (Q56487701) [wikidata] reliquary (Q722604) 2021 Apr 13 18:40
Waqupi Racing car (Q60143797) [wikidata] car (Q1420) 2021 Apr 13 18:35
Waqupi Young Woman in Blue (Q11451054) [wikidata] woman (Q467) 2021 Apr 13 18:33
Waqupi Sacred Heart of Jesus (Q20058671) [wikidata] robe (Q345127) 2021 Apr 13 18:32
Waqupi Sacred Heart of Jesus (Q20058671) [wikidata] Jesus Christ (Q302) 2021 Apr 13 18:32
Waqupi Reservoir, Elan Valley (Q75596083) [wikidata] sky (Q527) 2021 Apr 13 18:32
Waqupi Reservoir, Elan Valley (Q75596083) [wikidata] hill (Q54050) 2021 Apr 13 18:32
Waqupi Reservoir, Elan Valley (Q75596083) [wikidata] streetlight (Q503958) 2021 Apr 13 18:32
Waqupi Reservoir, Elan Valley (Q75596083) [wikidata] road (Q34442) 2021 Apr 13 18:32
Waqupi Reservoir, Elan Valley (Q75596083) [wikidata] railing (Q3095365) 2021 Apr 13 18:32
Waqupi Reservoir, Elan Valley (Q75596083) [wikidata] body of water (Q15324) 2021 Apr 13 18:32
Waqupi The wine connoisseurs (Q17324981) [wikidata] walking stick (Q1347864) 2021 Apr 13 18:30
Waqupi The wine connoisseurs (Q17324981) [wikidata] feather (Q81025) 2021 Apr 13 18:30
Waqupi The wine connoisseurs (Q17324981) [wikidata] bicorne (Q233104) 2021 Apr 13 18:30
Waqupi Portrait of a Young Woman (Q20175854) [wikidata] chemise (Q1604733) 2021 Apr 13 18:28
Waqupi Scene from J. L. Runeberg´s "Elk Hunters" (Q20771472) [wikidata] hat (Q80151) 2021 Apr 13 18:27
Waqupi Mrs Woodhull (Q18686623) [wikidata] Narcissus (Q29465) 2021 Apr 13 18:26
Waqupi Mrs Woodhull (Q18686623) [wikidata] rose (Q102231) 2021 Apr 13 18:26
Waqupi Mrs Woodhull (Q18686623) [wikidata] glade (Q4358873) 2021 Apr 13 18:26
Waqupi Bildnis der Eleonore Erdmuthe Louise, Gräfin von Brandenburg-Ansbach (Q30098042) [wikidata] fichu (Q453202) 2021 Apr 13 18:22
Waqupi Bildnis der Eleonore Erdmuthe Louise, Gräfin von Brandenburg-Ansbach (Q30098042) [wikidata] dress (Q200539) 2021 Apr 13 18:22
Waqupi Bildnis der Eleonore Erdmuthe Louise, Gräfin von Brandenburg-Ansbach (Q30098042) [wikidata] woman (Q467) 2021 Apr 13 18:22
Fuzheado The Death of Cleopatra (Q106397116) [wikidata] ring (Q46847) 2021 Apr 13 14:06
Fuzheado The Death of Cleopatra (Q106397116) [wikidata] necklace (Q189299) 2021 Apr 13 14:06
Fuzheado The Death of Cleopatra (Q106397116) [wikidata] robe (Q345127) 2021 Apr 13 14:06
Fuzheado The Death of Cleopatra (Q106397116) [wikidata] bracelet (Q201664) 2021 Apr 13 14:06
Fuzheado The Death of Cleopatra (Q106397116) [wikidata] sandal (Q131704) 2021 Apr 13 14:06
Fuzheado The Death of Cleopatra (Q106397116) [wikidata] headdress (Q28972621) 2021 Apr 13 14:06
Fuzheado The Death of Cleopatra (Q106397116) [wikidata] throne (Q189233) 2021 Apr 13 14:06
Fuzheado The Death of Cleopatra (Q106397116) [wikidata] Cleopatra (Q635) 2021 Apr 13 14:06
Fuzheado Hagar (Q106397188) [wikidata] Hagar (Q214617) 2021 Apr 13 14:03
Fuzheado Hagar (Q106397188) [wikidata] woman (Q467) 2021 Apr 13 14:03
Fuzheado Hagar (Q106397188) [wikidata] gown (Q1036729) 2021 Apr 13 14:03
Fuzheado Hagar (Q106397188) [wikidata] ewer (Q404785) 2021 Apr 13 14:03
Waqupi Maria Anna Christine of Bavaria (Q29914552) [wikidata] column (Q4817) 2021 Apr 09 09:40
Waqupi Maria Anna Christine of Bavaria (Q29914552) [wikidata] curtain (Q49005) 2021 Apr 09 09:40
Waqupi Maria Anna Christine of Bavaria (Q29914552) [wikidata] silk fabric (Q12019351) 2021 Apr 09 09:40
Waqupi Maria Anna Christine of Bavaria (Q29914552) [wikidata] chair (Q15026) 2021 Apr 09 09:40
Waqupi Maria Anna Christine of Bavaria (Q29914552) [wikidata] lace (Q231250) 2021 Apr 09 09:40
Waqupi Maria Anna Christine of Bavaria (Q29914552) [wikidata] robe (Q345127) 2021 Apr 09 09:40
Waqupi Maria Anna Christine of Bavaria (Q29914552) [wikidata] dress (Q200539) 2021 Apr 09 09:39
Waqupi Maria Anna Christine of Bavaria (Q29914552) [wikidata] woman (Q467) 2021 Apr 09 09:39
Waqupi An Estuary in Stormy Weather (Q19925003) [wikidata] man (Q8441) 2021 Apr 09 09:37